Murray, KY

1:27 PM CDT on March 29, 2017 (GMT -0500)
Kyle-Oakley

Weather History for KCEY - August, 2013

Change the Weather History Date:

Friday, August 23, 2013

  Actual Average (KPAH) Record (KPAH)
Temperature  
Mean Temperature 79 °F -  
Max Temperature 89 °F 87 °F 101 °F (2007)
Min Temperature 69 °F 66 °F 53 °F (1997)
Cooling Degree Days 14    
Growing Degree Days 29 (Base 50)    
Moisture  
Dew Point 71 °F    
Average Humidity 81    
Maximum Humidity 100    
Minimum Humidity 52    
Precipitation  
Precipitation 0.00 in - - ()
Sea Level Pressure  
Sea Level Pressure 30.07 in    
Wind  
Wind Speed 3 mph (NNW)    
Max Wind Speed 8 mph    
Max Gust Speed -    
Visibility 9 miles    
Events      
Averages and records for this station are not official NWS values.
T = Trace of Precipitation, MM = Missing Value Source: NWS Daily Summary

Daily Weather History Graph

Daily Weather History Graph

Search for Another Location

Airport or City:

Trip Planner

Search our weather history database for the weather conditions in past years. The results will help you decide how hot, cold, wet, or windy it might be!

Date:

Astronomy

Aug. 23, 2013 Rise Set
Actual Time 6:17 AM CDT 7:33 PM CDT
Civil Twilight 5:50 AM CDT 8:00 PM CDT
Nautical Twilight 5:18 AM CDT 8:32 PM CDT
Astronomical Twilight 4:44 AM CDT 9:06 PM CDT
Moon 8:59 PM CDT (8/23) 9:06 AM CDT (8/23)
Length of Visible Light 14h 10m
Length of Day
13h 16m
Waning Gibbous, 91% of the Moon is Illuminated
Aug 23
Waning Gibbous
Aug 28
Last Quarter
Sep 5
New
Sep 12
First Quarter
Sep 19
Full

Hourly Weather History & Observations

Time (CDT) Temp. Heat Index Dew Point Humidity Pressure Visibility Wind Dir Wind Speed Gust Speed Precip Events Conditions
12:15 AM 73.4 °F - 71.6 °F 94% 30.08 in 10.0 mi SSW 5.8 mph - N/A   Clear
12:35 AM 73.4 °F - 71.6 °F 94% 30.07 in 10.0 mi SSW 4.6 mph - N/A   Clear
12:55 AM 73.4 °F - 69.8 °F 88% 30.07 in 10.0 mi Calm Calm - N/A   Unknown
1:15 AM 71.6 °F - 69.8 °F 94% 30.07 in 10.0 mi Calm Calm - N/A   Unknown
1:35 AM 71.6 °F - 71.6 °F 100% 30.06 in 10.0 mi Calm Calm - N/A   Clear
1:55 AM 71.6 °F - 69.8 °F 94% 30.05 in 7.0 mi Calm Calm - N/A   Clear
2:15 AM 71.6 °F - 69.8 °F 94% 30.05 in 8.0 mi Calm Calm - N/A   Unknown
2:35 AM 71.6 °F - 71.6 °F 100% 30.05 in 7.0 mi Calm Calm - N/A   Unknown
2:55 AM 71.6 °F - 69.8 °F 94% 30.05 in 10.0 mi Calm Calm - N/A   Unknown
3:15 AM 71.6 °F - 69.8 °F 94% 30.05 in 7.0 mi Calm Calm - N/A   Unknown
3:35 AM 71.6 °F - 69.8 °F 94% 30.05 in 9.0 mi Calm Calm - N/A   Unknown
3:55 AM 71.6 °F - 69.8 °F 94% 30.05 in 10.0 mi SW 3.5 mph - N/A   Unknown
4:15 AM 71.6 °F - 69.8 °F 94% 30.05 in 10.0 mi SW 4.6 mph - N/A   Unknown
4:35 AM 71.6 °F - 69.8 °F 94% 30.05 in 10.0 mi WSW 5.8 mph - N/A   Unknown
4:55 AM 73.4 °F - 69.8 °F 88% 30.06 in 10.0 mi WSW 4.6 mph - N/A   Unknown
5:15 AM 73.4 °F - 69.8 °F 88% 30.06 in 10.0 mi WSW 4.6 mph - N/A   Unknown
5:35 AM 73.4 °F - 69.8 °F 88% 30.07 in 10.0 mi West 3.5 mph - N/A   Unknown
5:55 AM 71.6 °F - 69.8 °F 94% 30.07 in 10.0 mi Calm Calm - N/A   Unknown
6:15 AM 71.6 °F - 69.8 °F 94% 30.07 in 10.0 mi Calm Calm - N/A   Unknown
6:35 AM 71.6 °F - 71.6 °F 100% 30.08 in 8.0 mi West 3.5 mph - N/A   Clear
6:55 AM 73.4 °F - 69.8 °F 88% 30.09 in 10.0 mi WNW 3.5 mph - N/A   Clear
7:15 AM 73.4 °F - 71.6 °F 94% 30.09 in 9.0 mi West 3.5 mph - N/A   Mostly Cloudy
7:35 AM 75.2 °F - 71.6 °F 89% 30.09 in 10.0 mi Calm Calm - N/A   Mostly Cloudy
7:55 AM 75.2 °F - 71.6 °F 89% 30.09 in 10.0 mi WNW 4.6 mph - N/A   Scattered Clouds
8:15 AM 77.0 °F - 73.4 °F 89% 30.10 in 10.0 mi NW 4.6 mph - N/A   Clear
8:35 AM 77.0 °F - 73.4 °F 89% 30.10 in 10.0 mi NW 5.8 mph - N/A   Clear
8:55 AM 78.8 °F - 71.6 °F 78% 30.10 in 10.0 mi NNW 4.6 mph - N/A   Clear
9:15 AM 78.8 °F - 71.6 °F 78% 30.10 in 10.0 mi NW 3.5 mph - N/A   Clear
9:35 AM 82.4 °F 87.2 °F 71.6 °F 70% 30.10 in 10.0 mi NW 3.5 mph - N/A   Clear
9:55 AM 82.4 °F 87.2 °F 71.6 °F 70% 30.10 in 10.0 mi NW 4.6 mph - N/A   Clear
10:15 AM 82.4 °F 87.2 °F 71.6 °F 70% 30.10 in 10.0 mi NNW 4.6 mph - N/A   Clear
10:35 AM 82.4 °F 87.2 °F 71.6 °F 70% 30.10 in 10.0 mi NW 5.8 mph - N/A   Clear
10:55 AM 82.4 °F 87.2 °F 71.6 °F 70% 30.10 in 10.0 mi North 3.5 mph - N/A   Clear
11:15 AM 84.2 °F 89.6 °F 71.6 °F 66% 30.09 in 10.0 mi Calm Calm - N/A   Clear
11:35 AM 84.2 °F 89.6 °F 71.6 °F 66% 30.09 in 10.0 mi Calm Calm - N/A   Clear
11:55 AM 86.0 °F 91.8 °F 71.6 °F 62% 30.09 in 10.0 mi Calm Calm - N/A   Clear
12:15 PM 86.0 °F 91.8 °F 71.6 °F 62% 30.09 in 10.0 mi WNW 3.5 mph - N/A   Clear
12:35 PM 86.0 °F 91.8 °F 71.6 °F 62% 30.08 in 10.0 mi West 3.5 mph - N/A   Scattered Clouds
12:55 PM 86.0 °F 91.8 °F 71.6 °F 62% 30.07 in 9.0 mi North 6.9 mph - N/A   Partly Cloudy
1:15 PM 86.0 °F 90.4 °F 69.8 °F 58% 30.07 in 10.0 mi NNW 3.5 mph - N/A   Clear
1:35 PM 89.6 °F 94.7 °F 69.8 °F 52% 30.06 in 10.0 mi WNW 4.6 mph - N/A   Clear
1:55 PM 87.8 °F 93.8 °F 71.6 °F 58% 30.05 in 10.0 mi Calm Calm - N/A   Partly Cloudy
2:15 PM 89.6 °F 94.7 °F 69.8 °F 52% 30.04 in 10.0 mi WNW 3.5 mph - N/A   Clear
2:35 PM 89.6 °F 94.7 °F 69.8 °F 52% 30.04 in 10.0 mi NNW 4.6 mph - N/A   Partly Cloudy
2:55 PM 89.6 °F 94.7 °F 69.8 °F 52% 30.03 in 10.0 mi Calm Calm - N/A   Partly Cloudy
3:15 PM 87.8 °F 93.8 °F 71.6 °F 58% 30.03 in 10.0 mi NNW 4.6 mph - N/A   Mostly Cloudy
3:35 PM 82.4 °F 87.2 °F 71.6 °F 70% 30.03 in 6.0 mi NNE 8.1 mph - N/A   Mostly Cloudy
3:55 PM 80.6 °F 84.6 °F 71.6 °F 74% 30.04 in 10.0 mi North 6.9 mph - N/A   Scattered Clouds
4:15 PM 80.6 °F 85.4 °F 73.4 °F 79% 30.04 in 10.0 mi North 8.1 mph - N/A   Partly Cloudy
4:35 PM 80.6 °F 85.4 °F 73.4 °F 79% 30.04 in 10.0 mi NW 8.1 mph - N/A   Clear
4:55 PM 82.4 °F 87.2 °F 71.6 °F 70% 30.04 in 10.0 mi NNE 5.8 mph - N/A   Clear
5:15 PM 82.4 °F 87.2 °F 71.6 °F 70% 30.04 in 10.0 mi NNE 4.6 mph - N/A   Clear
5:35 PM 82.4 °F 88.2 °F 73.4 °F 74% 30.05 in 10.0 mi NNE 6.9 mph - N/A   Clear
5:55 PM 82.4 °F 88.2 °F 73.4 °F 74% 30.05 in 10.0 mi NE 8.1 mph - N/A   Clear
6:15 PM 82.4 °F 88.2 °F 73.4 °F 74% 30.04 in 10.0 mi NE 5.8 mph - N/A   Clear
6:35 PM 82.4 °F 87.2 °F 71.6 °F 70% 30.05 in 10.0 mi NNE 3.5 mph - N/A   Clear
6:55 PM 80.6 °F 84.6 °F 71.6 °F 74% 30.05 in 10.0 mi Calm Calm - N/A   Clear
7:15 PM 80.6 °F 83.9 °F 69.8 °F 70% 30.05 in 10.0 mi NE 4.6 mph - N/A   Clear
7:35 PM 77.0 °F - 69.8 °F 78% 30.06 in 10.0 mi NE 4.6 mph - N/A   Clear
7:55 PM 77.0 °F - 69.8 °F 78% 30.06 in 10.0 mi NNE 4.6 mph - N/A   Clear
8:15 PM 77.0 °F - 68.0 °F 74% 30.06 in 10.0 mi NE 6.9 mph - N/A   Clear
8:35 PM 75.2 °F - 69.8 °F 83% 30.06 in 10.0 mi NE 3.5 mph - N/A   Clear
8:55 PM 73.4 °F - 69.8 °F 88% 30.07 in 10.0 mi Calm Calm - N/A   Unknown
9:15 PM 73.4 °F - 69.8 °F 88% 30.08 in 10.0 mi NE 6.9 mph - N/A   Clear
9:35 PM 73.4 °F - 69.8 °F 88% 30.08 in 7.0 mi Calm Calm - N/A   Unknown
9:55 PM 71.6 °F - 69.8 °F 94% 30.09 in 10.0 mi Calm Calm - N/A   Clear
10:15 PM 73.4 °F - 71.6 °F 94% 30.08 in 10.0 mi Calm Calm - N/A   Unknown
10:35 PM 71.6 °F - 69.8 °F 94% 30.09 in 10.0 mi Calm Calm - N/A   Clear
10:55 PM 71.6 °F - 69.8 °F 94% 30.09 in 5.0 mi Calm Calm - N/A   Clear
11:15 PM 71.6 °F - 71.6 °F 100% 30.09 in 5.0 mi Calm Calm - N/A   Unknown
11:35 PM 69.8 °F - 69.8 °F 100% 30.10 in 2.5 mi East 3.5 mph - N/A   Unknown
11:55 PM 69.8 °F - 69.8 °F 100% 30.10 in 2.0 mi Calm Calm - N/A   Clear